Home   Weather   Siegen   Past weeks

Flag for Germany Past Weather in Siegen, North Rhine-Westphalia, Germany — Yesterday and Last 2 Weeks

46 °F

Drizzle. Fog.

Feels Like: 42 °F
Forecast: 36 / 52 °F
Wind: 9 mph from West

Location: Hessen

Current Time: Oct 25, 2016 at 10:36:50 AM

Latest Report: Oct 25, 2016 at 9:50 AM

Visibility: 1 mi

Pressure: 30.12 "Hg

Humidity: 100%

Dew Point: 46 °F

Location of SiegenLocation

Past Weather in Siegen — Graph


Siegen Temperature Yesterday

Maximum temperature yesterday: 48 °F (at 7:50 PM)
Minimum temperature yesterday: 41 °F (at 7:50 AM)
Average temperature yesterday: 45 °F

High & Low Weather Summary for the Past Weeks

High59 °F (Oct 16, 2:50 PM)100% (Oct 10, 10:20 AM)30.21 "Hg (Oct 10, 10:20 AM)
Low37 °F (Oct 11, 7:50 AM)59% (Oct 16, 3:50 PM)29.68 "Hg (Oct 14, 7:50 PM)
Average44 °F94%29.99 "Hg
* Reported Oct 10 8:20 AM — Oct 25 8:50 AM, Siegen, Weather by CustomWeather, © 2016

Note: Actual official high and low records may vary slightly from our data, if they occured in-between our weather recording intervals... More about our weather records


Siegen Weather History for the Previous 24 Hours

Scroll right to see more
Time TempWeatherWind HumidityBarometerVisibility
8:50 AM
Tue, Oct 25
46 °FDrizzle. Fog.13 mph100%30.12 "Hg1 mi
8:20 AM46 °FDrizzle. Fog.9 mph100%30.09 "Hg0 mi
7:50 AM48 °FDrizzle. Fog.10 mph100%30.09 "Hg0 mi
8:50 PM
Mon, Oct 24
48 °FFog.No wind100%29.95 "Hg1 mi
7:50 PM48 °FFog.3 mph100%29.95 "Hg1 mi
7:20 PM46 °FFog.1 mph100%29.95 "Hg1 mi
6:50 PM46 °FFog.No wind100%29.92 "Hg0 mi
6:20 PM45 °FFog.2 mph100%29.92 "Hg0 mi
5:50 PM46 °FFog.1 mph100%29.92 "Hg0 mi
5:20 PM46 °FFog.No wind100%29.92 "Hg0 mi
4:50 PM45 °FFog.3 mph100%29.89 "Hg0 mi
4:20 PM46 °FFog.8 mph100%29.89 "Hg0 mi
3:50 PM46 °FDrizzle. Fog.6 mph100%29.89 "Hg1 mi
3:20 PM46 °FDrizzle. Fog.6 mph100%29.89 "Hg1 mi
2:50 PM45 °FRain. Fog.6 mph100%29.92 "Hg1 mi
2:20 PM45 °FLight rain. Fog.9 mph100%29.89 "Hg1 mi
1:50 PM45 °FLight rain. Fog.9 mph100%29.89 "Hg0 mi
1:20 PM45 °FLight rain. Fog.12 mph100%29.89 "Hg0 mi
12:50 PM45 °FLight rain. Fog.9 mph100%29.92 "Hg0 mi
12:20 PM45 °FLight rain. Fog.12 mph100%29.89 "Hg0 mi
11:50 AM45 °FDrizzle. Fog.14 mph100%29.92 "Hg0 mi
11:20 AM45 °FDrizzle. Fog.14 mph100%29.92 "Hg0 mi
10:50 AM43 °FLight rain. Fog.15 mph100%29.92 "Hg0 mi
10:20 AM43 °FDrizzle. Fog.14 mph100%29.92 "Hg0 mi
Weather by CustomWeather, © 2016

See weather overviewHow to use our weather pages